ROT298Y LBSF-LROP

Flight info

Callsign ROT298Y
Flight time N/A
Altitude 24000
Route GOL Q24 SOMOV/N0383F230 DCT SORDU
Aircraft A320/M-SDE3FGHIRWY/LB1

Departure

Time 2026-04-30 17:41
Airport Sofia Airport (LBSF)

Arrival

Time N/A
Airport Bucharest Henri Coandă International Airport (LROP)
Time Latitude Longitude Altitude Speed Heading
2026-04-30 17:39 42.83581 23.47320 10779 ft 310 kts 46°
2026-04-30 17:41 42.94535 23.64413 15842 ft 365 kts 45°
2026-04-30 17:42 42.97862 23.69606 16954 ft 380 kts 45°
2026-04-30 17:42 43.03084 23.77830 18815 ft 398 kts 45°
2026-04-30 17:43 43.06727 23.83566 20038 ft 406 kts 45°
2026-04-30 17:44 43.12402 23.92534 21660 ft 424 kts 45°
2026-04-30 17:44 43.18324 24.01907 23089 ft 447 kts 45°
2026-04-30 17:46 43.28543 24.18156 23326 ft 449 kts 45°
2026-04-30 17:47 43.36694 24.30863 23334 ft 446 kts 39°
2026-04-30 17:48 43.45743 24.42217 23332 ft 445 kts 37°
2026-04-30 17:48 43.52614 24.50810 23357 ft 444 kts 38°
2026-04-30 17:49 43.61678 24.62305 23351 ft 444 kts 38°
2026-04-30 17:50 43.70513 24.73548 22482 ft 422 kts 38°
2026-04-30 17:51 43.76924 24.81703 21673 ft 413 kts 38°
2026-04-30 17:52 43.83137 24.89653 20571 ft 409 kts 39°
2026-04-30 17:53 43.93476 25.02916 17768 ft 399 kts 40°
2026-04-30 17:54 44.01278 25.12999 15640 ft 362 kts 40°
2026-04-30 17:55 44.07740 25.21364 13914 ft 341 kts 41°
2026-04-30 17:56 44.14543 25.30186 12013 ft 327 kts 42°
2026-04-30 17:57 44.19405 25.36512 10732 ft 309 kts 41°
2026-04-30 17:58 44.23799 25.42264 9796 ft 274 kts 41°
2026-04-30 17:59 44.29214 25.49326 8676 ft 271 kts 42°
2026-04-30 18:00 44.34621 25.56425 7033 ft 261 kts 43°
2026-04-30 18:00 44.38510 25.61532 5488 ft 254 kts 44°
2026-04-30 18:01 44.41048 25.64868 4595 ft 250 kts 44°
2026-04-30 18:02 44.43918 25.68654 3672 ft 242 kts 45°
2026-04-30 18:02 44.44083 25.68872 3624 ft 241 kts 45°